[[{"header":{"parameterUnit":"m.s-1","parameterCategory":1,"la1":30.2991,"la2":30.254,"lo1":-89.0895,"lo2":-89.0444,"dy":0.0017,"dx":0.0017,"nx":28,"ny":28,"refTime":"2023-10-06T09:00:00:Z","depth":0,"parameterNumber":2,"parameterNumberName":"U-component_of_WINDS"},"data":[0,0,0,0,0,0,0,0,0,0,0,0,0,0,0,0,0,0,0,0,0,0,0,0,0,0,0,0,0,0,0,0,0,0,0,0,0,0,0,0,0,0,0,0,0,0,0,0,0,0,0,0,0,0,0,0,0,0,-0.3083,-0.3082,0,-0.3027,-0.3026,-0.3026,-0.2928,-0.2926,-0.2925,-0.2923,-0.2868,-0.2869,-0.2869,0,0,0,0,0,0,0,0,0,0,0,0,0,-0.3107,-0.3107,-0.3083,-0.3082,-0.3082,-0.3027,-0.3026,-0.3026,-0.2929,-0.2926,-0.2924,-0.2922,-0.2868,-0.2868,-0.2869,0,0,0,0,0,0,0,0,0,0,0,0,0,-0.3079,-0.3107,-0.3083,-0.3026,-0.3021,-0.3027,-0.3026,-0.3025,-0.2929,-0.2926,-0.2923,-0.2921,-0.2868,-0.2868,-0.2869,-0.2927,0,0,-0.287,-0.287,0,0,0,0,0,0,0,0,-0.308,-0.3078,-0.3035,-0.303,-0.3024,-0.2982,-0.3015,-0.2992,-0.293,-0.2964,-0.2923,-0.292,-0.2908,-0.2905,-0.2901,-0.2924,-0.2922,-0.287,-0.287,-0.2871,-0.2871,0,0,0,0,0,0,0,-0.3082,-0.308,-0.3061,-0.3035,-0.3028,-0.3004,-0.2997,-0.301,-0.2953,-0.2961,-0.2954,-0.2948,-0.2905,-0.2901,-0.2899,-0.2921,-0.287,-0.287,-0.2871,-0.2871,-0.2989,-0.2991,0,0,0,0,0,0,-0.3092,-0.3082,-0.3063,-0.3059,-0.3046,-0.3006,-0.2998,-0.2998,-0.2952,-0.2942,-0.2951,-0.2944,-0.2902,-0.2899,-0.2897,-0.2962,-0.2871,-0.2871,-0.2871,-0.2986,-0.2989,-0.2992,0,0,0,0,0,0,-0.3093,-0.3092,-0.3065,-0.3069,-0.3063,-0.3009,-0.3009,-0.2999,-0.2994,-0.2944,-0.2934,-0.2957,-0.2899,-0.2896,-0.292,-0.2959,-0.2871,-0.2871,-0.2982,-0.2987,-0.2991,-0.3093,0,0,0,0,0,0,-0.3094,-0.3093,-0.3114,-0.307,-0.3063,-0.3089,-0.3012,-0.2999,-0.2995,-0.2986,-0.2948,-0.2939,-0.2897,-0.292,-0.292,-0.2958,-0.2872,-0.2979,-0.2984,-0.2989,-0.3086,-0.31,-0.3112,0,0,0,0,0,-0.3096,-0.3145,-0.3115,-0.3114,-0.3089,-0.3091,-0.3088,-0.3038,-0.2999,-0.302,-0.2987,-0.294,-0.2954,-0.2923,-0.2923,-0.2961,-0.2976,-0.2983,-0.2989,-0.308,-0.3097,-0.3112,0,0,0,0,0,0,-0.3197,-0.3139,-0.3105,-0.3142,-0.3122,-0.3075,-0.31,-0.3058,-0.305,-0.3042,-0.298,-0.2973,-0.3005,-0.2984,-0.2951,-0.3014,-0.2957,-0.2964,-0.3027,-0.3043,-0.3056,-0.3061,-0.2872,0,0,0,0,0,-0.3223,-0.3229,-0.3178,-0.3216,-0.3207,-0.3156,-0.3155,-0.3118,-0.3095,-0.3087,-0.3056,-0.3037,-0.3037,-0.3038,-0.3035,-0.3081,-0.3072,-0.3107,-0.3121,-0.3132,-0.3139,-0.3162,-0.3178,-0.3014,-0.3014,-0.3014,0,0,-0.3278,-0.3247,-0.3255,-0.3235,-0.3216,-0.3224,-0.315,-0.3162,-0.3168,-0.3089,-0.311,-0.3086,-0.3061,-0.3096,-0.311,-0.308,-0.3182,-0.314,-0.3149,-0.3151,-0.3171,-0.3186,-0.32,-0.3018,-0.3017,-0.3017,0,0,-0.3383,-0.336,-0.3389,-0.337,-0.3341,-0.3306,-0.3313,-0.3271,-0.3253,-0.3272,-0.3213,-0.3219,-0.322,-0.3204,-0.3197,-0.3294,-0.325,-0.3294,-0.3365,-0.3388,-0.3401,-0.3412,-0.3448,-0.3462,-0.3301,-0.3302,-0.3302,0,-0.3456,-0.3466,-0.3409,-0.3425,-0.3418,-0.3345,-0.3375,-0.3359,-0.3332,-0.3329,-0.3295,-0.3295,-0.3272,-0.3303,-0.3327,-0.3322,-0.3329,-0.33,-0.3404,-0.3414,-0.3424,-0.3458,-0.3471,-0.3307,-0.3307,-0.3306,-0.3306,0,-0.3557,-0.3564,-0.3591,-0.3565,-0.3561,-0.3583,-0.353,-0.3533,-0.3496,-0.3464,-0.3485,-0.3455,-0.3445,-0.3449,-0.3413,-0.3475,-0.3457,-0.3415,-0.3357,-0.3446,-0.3477,-0.3489,-0.3315,-0.3313,-0.3312,-0.331,0,0,-0.3727,-0.3667,-0.3678,-0.3665,-0.3627,-0.3632,-0.3651,-0.364,-0.3644,-0.3626,-0.3641,-0.3643,-0.3603,-0.3594,-0.3555,-0.3576,-0.3656,-0.353,-0.3529,-0.3556,-0.3723,-0.3756,-0.3772,-0.3625,-0.3627,-0.3629,-0.3725,0,-0.3825,-0.3853,-0.3802,-0.3843,-0.385,-0.378,-0.3797,-0.3775,-0.3746,-0.3748,-0.3715,-0.3718,-0.3664,-0.3658,-0.3675,-0.3643,-0.3689,-0.3634,-0.364,-0.3641,-0.3651,-0.3788,-0.3824,-0.3916,-0.3737,-0.3739,-0.374,0,-0.3944,-0.3931,-0.3973,-0.3932,-0.3932,-0.3948,-0.3934,-0.3936,-0.391,-0.3887,-0.3876,-0.383,-0.3846,-0.3789,-0.381,-0.3775,-0.3773,-0.3757,-0.376,-0.376,-0.3698,-0.3794,-0.3944,-0.3959,-0.3758,-0.3757,-0.3755,0,-0.4065,-0.4059,-0.4083,-0.4073,-0.4025,-0.4038,-0.4019,-0.399,-0.3986,-0.3974,-0.3971,-0.396,-0.3955,-0.3948,-0.3901,-0.3863,-0.3929,-0.3867,-0.3911,-0.3913,-0.393,-0.393,-0.4085,-0.3927,-0.3926,-0.3926,-0.3926,0,-0.4182,-0.421,-0.4136,-0.4152,-0.4182,-0.4122,-0.4153,-0.4127,-0.4102,-0.4111,-0.4049,-0.4059,-0.3995,-0.3998,-0.396,-0.3984,-0.3982,-0.3965,-0.3955,-0.3972,-0.3974,-0.3972,-0.3965,-0.393,-0.3929,-0.3928,-0.3928,0,-0.4324,-0.4275,-0.4297,-0.4249,-0.4237,-0.4262,-0.4221,-0.4233,-0.4199,-0.4211,-0.421,-0.4157,-0.4157,-0.4108,-0.4099,-0.4074,-0.4115,-0.4092,-0.4124,-0.4117,-0.4165,-0.4162,-0.4325,-0.4343,-0.4172,-0.4174,-0.4175,0,-0.4402,-0.4422,-0.4376,-0.4377,-0.4361,-0.4364,-0.4359,-0.4301,-0.4299,-0.427,-0.4286,-0.4281,-0.4274,-0.4278,-0.4239,-0.4231,-0.4209,-0.4266,-0.4208,-0.4224,-0.4212,-0.4212,-0.4214,-0.428,-0.4282,-0.4284,-0.4285,0,-0.4547,-0.4522,-0.4518,-0.4505,-0.4501,-0.4489,-0.4472,-0.4477,-0.4413,-0.4414,-0.4413,-0.4408,-0.4397,-0.4393,-0.4378,-0.4358,-0.4312,-0.4303,-0.4314,-0.4332,-0.435,-0.4343,-0.4159,-0.4301,-0.4299,-0.4298,-0.4297,-0.4297,-0.4661,-0.4676,-0.4645,-0.4643,-0.4623,-0.4609,-0.4618,-0.4585,-0.4583,-0.4569,-0.4534,-0.4539,-0.4512,-0.4486,-0.4471,-0.4474,-0.4445,-0.446,-0.4464,-0.4469,-0.4479,-0.4348,-0.4471,-0.447,-0.447,-0.4469,-0.4469,0,-0.4804,-0.4781,-0.4778,-0.4757,-0.4755,-0.4709,-0.4688,-0.469,-0.4695,-0.4673,-0.4667,-0.4665,-0.4661,-0.4621,-0.4612,-0.4622,-0.4601,-0.4622,-0.4622,-0.4618,-0.4504,-0.4497,-0.464,-0.464,-0.464,-0.464,-0.4639,-0.4639,-0.4879,-0.4901,-0.4872,-0.4885,-0.4861,-0.4865,-0.4857,-0.4844,-0.4826,-0.4827,-0.4823,-0.4796,-0.4767,-0.4755,-0.4749,-0.4737,-0.4737,-0.4766,-0.4748,-0.4643,-0.4626,-0.4611,-0.4604,-0.4766,-0.4767,-0.4862,-0.4863,-0.4863]},{"header":{"parameterUnit":"m.s-1","parameterCategory":1,"la1":30.2991,"la2":30.254,"lo1":-89.0895,"lo2":-89.0444,"dy":0.0017,"dx":0.0017,"nx":28,"ny":28,"refTime":"2023-10-06T09:00:00:Z","depth":0,"parameterNumber":3,"parameterNumberName":"V-component_of_WINDS"},"data":[0,0,0,0,0,0,0,0,0,0,0,0,0,0,0,0,0,0,0,0,0,0,0,0,0,0,0,0,0,0,0,0,0,0,0,0,0,0,0,0,0,0,0,0,0,0,0,0,0,0,0,0,0,0,0,0,0,0,-0.0281,-0.028,0,-0.0235,-0.0234,-0.0234,-0.0185,-0.0184,-0.0184,-0.0183,-0.0139,-0.0139,-0.0138,0,0,0,0,0,0,0,0,0,0,0,0,0,-0.0332,-0.0331,-0.0281,-0.028,-0.028,-0.0235,-0.0234,-0.0234,-0.0185,-0.0184,-0.0183,-0.0183,-0.0139,-0.0139,-0.0138,0,0,0,0,0,0,0,0,0,0,0,0,0,-0.03,-0.0331,-0.0281,-0.025,-0.0247,-0.0235,-0.0234,-0.0233,-0.0185,-0.0184,-0.0183,-0.0182,-0.014,-0.0139,-0.0138,-0.0154,0,0,-0.0136,-0.0135,0,0,0,0,0,0,0,0,-0.0302,-0.0298,-0.0255,-0.0252,-0.0248,-0.0214,-0.0236,-0.0207,-0.0185,-0.0209,-0.0183,-0.0182,-0.0165,-0.0162,-0.0156,-0.0152,-0.015,-0.0136,-0.0135,-0.0135,-0.0135,0,0,0,0,0,0,0,-0.0304,-0.03,-0.0263,-0.0254,-0.025,-0.024,-0.0234,-0.023,-0.0194,-0.0207,-0.0203,-0.0198,-0.0163,-0.0157,-0.0155,-0.015,-0.0136,-0.0135,-0.0135,-0.0134,-0.0162,-0.0163,0,0,0,0,0,0,-0.031,-0.0302,-0.0264,-0.0261,-0.0273,-0.024,-0.0234,-0.0226,-0.0193,-0.0187,-0.0199,-0.0196,-0.0159,-0.0156,-0.0153,-0.0173,-0.0135,-0.0134,-0.0134,-0.016,-0.0162,-0.0163,0,0,0,0,0,0,-0.0312,-0.0307,-0.0266,-0.0281,-0.0275,-0.024,-0.0232,-0.0226,-0.022,-0.0188,-0.0181,-0.0199,-0.0158,-0.0154,-0.0155,-0.0171,-0.0134,-0.0133,-0.0159,-0.0161,-0.0162,-0.0211,0,0,0,0,0,0,-0.0313,-0.0308,-0.0312,-0.0281,-0.0274,-0.0267,-0.0233,-0.0226,-0.0218,-0.0214,-0.0186,-0.018,-0.0157,-0.0157,-0.0154,-0.0169,-0.0133,-0.0157,-0.016,-0.0162,-0.0208,-0.0214,-0.0219,0,0,0,0,0,-0.0315,-0.0328,-0.0313,-0.0309,-0.0278,-0.0268,-0.0264,-0.0236,-0.0219,-0.0225,-0.0205,-0.0181,-0.0169,-0.0157,-0.0154,-0.0169,-0.0156,-0.0159,-0.0162,-0.0205,-0.0213,-0.0219,0,0,0,0,0,0,-0.0362,-0.0323,-0.0306,-0.0308,-0.0292,-0.026,-0.0265,-0.0244,-0.0233,-0.0229,-0.0196,-0.019,-0.0196,-0.0182,-0.0169,-0.0185,-0.016,-0.0162,-0.0194,-0.0201,-0.0206,-0.021,-0.0132,0,0,0,0,0,-0.0372,-0.0366,-0.0332,-0.0338,-0.033,-0.03,-0.0294,-0.0274,-0.0256,-0.0249,-0.0229,-0.0213,-0.0207,-0.0203,-0.0194,-0.0205,-0.0201,-0.0214,-0.022,-0.0225,-0.0228,-0.0237,-0.0243,-0.0172,-0.0172,-0.0172,0,0,-0.0394,-0.0372,-0.037,-0.0347,-0.0331,-0.0328,-0.0294,-0.029,-0.0288,-0.0249,-0.0249,-0.0234,-0.0215,-0.0222,-0.0224,-0.0211,-0.0247,-0.0228,-0.0233,-0.0233,-0.024,-0.0247,-0.0253,-0.0174,-0.0173,-0.0173,0,0,-0.0432,-0.0413,-0.0417,-0.0403,-0.0381,-0.0361,-0.0362,-0.0334,-0.0322,-0.0322,-0.0294,-0.0291,-0.0279,-0.0267,-0.026,-0.0298,-0.0277,-0.0296,-0.0327,-0.0336,-0.0342,-0.0347,-0.0363,-0.0369,-0.0299,-0.0299,-0.0299,0,-0.0462,-0.0453,-0.0422,-0.0421,-0.0414,-0.0378,-0.0384,-0.0372,-0.0348,-0.0345,-0.033,-0.0316,-0.0301,-0.0307,-0.0316,-0.031,-0.0313,-0.0299,-0.0343,-0.0348,-0.0352,-0.0368,-0.0374,-0.0302,-0.0301,-0.0301,-0.0301,0,-0.0493,-0.0488,-0.0494,-0.0473,-0.0466,-0.0468,-0.044,-0.0437,-0.0418,-0.0401,-0.0403,-0.0383,-0.0372,-0.0372,-0.0353,-0.0376,-0.0369,-0.0349,-0.0323,-0.0362,-0.0376,-0.0382,-0.0305,-0.0304,-0.0304,-0.0303,0,0,-0.0557,-0.0521,-0.0524,-0.0515,-0.049,-0.0486,-0.0489,-0.0477,-0.0477,-0.0463,-0.0466,-0.0458,-0.0441,-0.0433,-0.0413,-0.0421,-0.0456,-0.04,-0.0399,-0.0414,-0.0485,-0.0501,-0.0508,-0.0442,-0.0443,-0.0444,-0.0487,0,-0.0592,-0.0593,-0.0567,-0.0576,-0.0573,-0.0541,-0.0544,-0.053,-0.0514,-0.0511,-0.0494,-0.049,-0.0466,-0.0461,-0.0467,-0.045,-0.047,-0.0447,-0.0447,-0.0448,-0.0455,-0.0515,-0.0532,-0.0574,-0.0492,-0.0493,-0.0494,0,-0.0633,-0.0622,-0.0631,-0.0609,-0.0606,-0.0609,-0.0599,-0.0595,-0.058,-0.0569,-0.0561,-0.0539,-0.0543,-0.0518,-0.0524,-0.0509,-0.0508,-0.05,-0.0501,-0.0502,-0.0474,-0.052,-0.0586,-0.0594,-0.0502,-0.0501,-0.05,0,-0.0683,-0.067,-0.0675,-0.0668,-0.0641,-0.0645,-0.0634,-0.0618,-0.0614,-0.0605,-0.0603,-0.0595,-0.0591,-0.0587,-0.0565,-0.0548,-0.0575,-0.0547,-0.0568,-0.0569,-0.0576,-0.0577,-0.0646,-0.0572,-0.0572,-0.0572,-0.0572,0,-0.0726,-0.0733,-0.0697,-0.07,-0.0709,-0.068,-0.069,-0.0677,-0.0663,-0.0665,-0.0636,-0.0639,-0.0608,-0.0609,-0.0591,-0.0602,-0.0599,-0.0592,-0.0588,-0.0596,-0.0597,-0.0596,-0.0593,-0.0574,-0.0573,-0.0573,-0.0573,0,-0.0783,-0.0758,-0.0762,-0.0737,-0.0731,-0.0739,-0.0719,-0.0722,-0.0706,-0.0709,-0.0708,-0.0683,-0.0682,-0.0659,-0.0653,-0.0642,-0.066,-0.0649,-0.0665,-0.0663,-0.0686,-0.0685,-0.0759,-0.0769,-0.0686,-0.0687,-0.0688,0,-0.0812,-0.0818,-0.0794,-0.0793,-0.0784,-0.0782,-0.0779,-0.0752,-0.075,-0.0735,-0.0741,-0.0738,-0.0734,-0.0735,-0.0717,-0.0713,-0.0704,-0.073,-0.0703,-0.0712,-0.0708,-0.0709,-0.0711,-0.0736,-0.0737,-0.0738,-0.0739,0,-0.0869,-0.0858,-0.0853,-0.0846,-0.0843,-0.0835,-0.0826,-0.0828,-0.0798,-0.0798,-0.0797,-0.0794,-0.0789,-0.0787,-0.0781,-0.0772,-0.0752,-0.0747,-0.0753,-0.0762,-0.0772,-0.077,-0.0683,-0.0746,-0.0745,-0.0745,-0.0744,-0.0744,-0.0915,-0.092,-0.0905,-0.0902,-0.0893,-0.0886,-0.0889,-0.0874,-0.0872,-0.0866,-0.085,-0.0853,-0.0841,-0.0831,-0.0824,-0.0827,-0.0814,-0.0821,-0.0823,-0.0826,-0.0832,-0.077,-0.0826,-0.0825,-0.0825,-0.0825,-0.0825,0,-0.0973,-0.0962,-0.096,-0.0949,-0.0948,-0.0928,-0.0919,-0.0919,-0.0922,-0.0912,-0.0909,-0.091,-0.091,-0.0893,-0.0891,-0.0897,-0.0888,-0.0898,-0.0898,-0.0897,-0.0842,-0.0839,-0.0905,-0.0905,-0.0905,-0.0905,-0.0905,-0.0905,-0.1003,-0.1011,-0.0999,-0.1004,-0.0993,-0.0995,-0.0992,-0.0987,-0.0979,-0.0982,-0.0981,-0.097,-0.0959,-0.0956,-0.0956,-0.0951,-0.0953,-0.0966,-0.0959,-0.0908,-0.09,-0.0893,-0.089,-0.0966,-0.0966,-0.1014,-0.1015,-0.1015]}]]